owner,sensor,date,latitude,longitude,vertical_datum,wind_speed,wind_to_direction,wind_speed_of_gust,qcFlag 
TABS,ioos:station:wmo:42045:1,2015-07-01T00:00:00Z,26.2168,-96.4998,4.0,6.264183905,159.8296042,7.19,'11111222,11111222,11111222' 
TABS,ioos:station:wmo:42045:1,2015-07-01T00:30:00Z,26.2168,-96.4998,4.0,5.909534669,154.8662306,7.01,'11111222,11111222,11111222' 
TABS,ioos:station:wmo:42045:1,2015-07-01T01:00:00Z,26.2168,-96.4998,4.0,6.099458992,145.5546613,7.6,'11111222,11111222,11111222' 
TABS,ioos:station:wmo:42045:1,2015-07-01T01:30:00Z,26.2168,-96.4998,4.0,5.752955762,137.1839626,6.83,'11111222,11111222,11111222' 
TABS,ioos:station:wmo:42045:1,2015-07-01T02:00:00Z,26.2168,-96.4998,4.0,6.551335742,130.7913406,8.17,'11111222,11111222,11111222' 
TABS,ioos:station:wmo:42045:1,2015-07-01T02:30:00Z,26.2168,-96.4998,4.0,6.473577064,129.9872137,7.59,'11111222,11111222,11111222' 
TABS,ioos:station:wmo:42045:1,2015-07-01T03:00:00Z,26.2168,-96.4998,4.0,6.342002838,130.3958393,7.72,'11111222,11111222,11111222' 
TABS,ioos:station:wmo:42045:1,2015-07-01T03:30:00Z,26.2168,-96.4998,4.0,6.695252049,123.5480016,8.14,'11111222,11111222,11111222' 
TABS,ioos:station:wmo:42045:1,2015-07-01T04:00:00Z,26.2168,-96.4998,4.0,6.953934138,125.5188596,8.11,'11111222,11111222,11111222' 
TABS,ioos:station:wmo:42045:1,2015-07-01T04:30:00Z,26.2168,-96.4998,4.0,7.467275273,127.9291526,8.84,'11111222,11111222,11111222' 
TABS,ioos:station:wmo:42045:1,2015-07-01T05:00:00Z,26.2168,-96.4998,4.0,8.455873698,125.6640438,10.18,'11111222,11111222,11111222' 
TABS,ioos:station:wmo:42045:1,2015-07-01T05:30:00Z,26.2168,-96.4998,4.0,8.436592914,131.5887438,10.43,'11111222,11111222,11111222' 
TABS,ioos:station:wmo:42045:1,2015-07-01T06:00:00Z,26.2168,-96.4998,4.0,7.964602941,126.1652236,9.63,'11111222,11111222,11111222' 
TABS,ioos:station:wmo:42045:1,2015-07-01T06:30:00Z,26.2168,-96.4998,4.0,8.572245913,130.1738868,10.18,'11111222,11111222,11111222' 
TABS,ioos:station:wmo:42045:1,2015-07-01T07:00:00Z,26.2168,-96.4998,4.0,8.407883206,116.1082736,9.77,'11111222,11111222,11111222' 
TABS,ioos:station:wmo:42045:1,2015-07-01T07:30:00Z,26.2168,-96.4998,4.0,7.7874065,127.9592041,9.17,'11111222,11111222,11111222' 
TABS,ioos:station:wmo:42045:1,2015-07-01T08:00:00Z,26.2168,-96.4998,4.0,7.765339658,137.6620982,9.08,'11111222,11111222,11111222' 
TABS,ioos:station:wmo:42045:1,2015-07-01T08:30:00Z,26.2168,-96.4998,4.0,7.871873983,140.567503,9.3,'11111222,11111222,11111222' 
TABS,ioos:station:wmo:42045:1,2015-07-01T09:00:00Z,26.2168,-96.4998,4.0,7.752793045,136.5682356,9.07,'11111222,11111222,11111222' 
TABS,ioos:station:wmo:42045:1,2015-07-01T09:30:00Z,26.2168,-96.4998,4.0,8.080111385,137.0063483,9.63,'11111222,11111222,11111222' 
TABS,ioos:station:wmo:42045:1,2015-07-01T10:00:00Z,26.2168,-96.4998,4.0,8.217426604,137.5155617,9.44,'11111222,11111222,11111222' 
TABS,ioos:station:wmo:42045:1,2015-07-01T10:30:00Z,26.2168,-96.4998,4.0,8.773163626,138.789807,10.38,'11111222,11111222,11111222' 
TABS,ioos:station:wmo:42045:1,2015-07-01T11:00:00Z,26.2168,-96.4998,4.0,8.886129641,142.820905,10.55,'11111222,11111222,11111222' 
TABS,ioos:station:wmo:42045:1,2015-07-01T11:30:00Z,26.2168,-96.4998,4.0,8.469344721,141.5201022,10.36,'11111222,11111222,11111222' 
TABS,ioos:station:wmo:42045:1,2015-07-01T12:00:00Z,26.2168,-96.4998,4.0,9.181508591,141.1455771,11.61,'11111222,11111222,11111222' 
TABS,ioos:station:wmo:42045:1,2015-07-01T12:30:00Z,26.2168,-96.4998,4.0,9.44661315,146.0915371,11.29,'11111222,11111222,11111222' 
TABS,ioos:station:wmo:42045:1,2015-07-01T13:00:00Z,26.2168,-96.4998,4.0,8.514282119,144.9476301,9.88,'11111222,11111222,11111222' 
TABS,ioos:station:wmo:42045:1,2015-07-01T13:30:00Z,26.2168,-96.4998,4.0,9.243208317,148.1328845,10.79,'11111222,11111222,11111222' 
TABS,ioos:station:wmo:42045:1,2015-07-01T14:00:00Z,26.2168,-96.4998,4.0,13.02041474,199.9381556,15.42,'11111222,11111222,11111222' 
TABS,ioos:station:wmo:42045:1,2015-07-01T14:30:00Z,26.2168,-96.4998,4.0,13.31401142,197.033293,15.62,'11111222,11111222,11111222' 
TABS,ioos:station:wmo:42045:1,2015-07-01T15:00:00Z,26.2168,-96.4998,4.0,11.52358451,193.3972834,13.97,'11111222,11111222,11111222' 
TABS,ioos:station:wmo:42045:1,2015-07-01T15:30:00Z,26.2168,-96.4998,4.0,12.52368157,196.4671669,16.99,'11111222,11111222,11111222' 
TABS,ioos:station:wmo:42045:1,2015-07-01T16:00:00Z,26.2168,-96.4998,4.0,15.83644215,191.4733111,21.65,'11111222,11111222,11111222' 
TABS,ioos:station:wmo:42045:1,2015-07-01T16:30:00Z,26.2168,-96.4998,4.0,10.82013863,186.5275127,13.66,'11111222,11111222,11111222' 
TABS,ioos:station:wmo:42045:1,2015-07-01T17:00:00Z,26.2168,-96.4998,4.0,8.623554951,185.0562758,10.22,'11111222,11111222,11111222' 
TABS,ioos:station:wmo:42045:1,2015-07-01T17:30:00Z,26.2168,-96.4998,4.0,7.457459353,186.4676543,8.96,'11111222,11111222,11111222' 
TABS,ioos:station:wmo:42045:1,2015-07-01T18:00:00Z,26.2168,-96.4998,4.0,6.609001437,196.7077194,8.0,'11111222,11111222,11111222' 
TABS,ioos:station:wmo:42045:1,2015-07-01T18:30:00Z,26.2168,-96.4998,4.0,4.914885553,206.4609309,5.78,'11111222,11111222,11111222' 
TABS,ioos:station:wmo:42045:1,2015-07-01T19:00:00Z,26.2168,-96.4998,4.0,5.438124677,206.6594357,6.51,'11111222,11111222,11111222' 
TABS,ioos:station:wmo:42045:1,2015-07-01T19:30:00Z,26.2168,-96.4998,4.0,5.508175742,201.0675449,6.55,'11111222,11111222,11111222' 
TABS,ioos:station:wmo:42045:1,2015-07-01T20:00:00Z,26.2168,-96.4998,4.0,5.557490441,197.1635377,6.73,'11111222,11111222,11111222' 
TABS,ioos:station:wmo:42045:1,2015-07-01T20:30:00Z,26.2168,-96.4998,4.0,5.597588767,197.7877353,6.82,'11111222,11111222,11111222' 
TABS,ioos:station:wmo:42045:1,2015-07-01T21:00:00Z,26.2168,-96.4998,4.0,4.992013622,200.0322995,6.14,'11111222,11111222,11111222' 
TABS,ioos:station:wmo:42045:1,2015-07-01T21:30:00Z,26.2168,-96.4998,4.0,4.181865612,255.0333154,5.25,'11111222,11111222,11111222' 
TABS,ioos:station:wmo:42045:1,2015-07-01T22:00:00Z,26.2168,-96.4998,4.0,3.81980366,246.3878551,4.69,'11111222,11111222,11111222' 
TABS,ioos:station:wmo:42045:1,2015-07-01T22:30:00Z,26.2168,-96.4998,4.0,3.479554569,231.4174306,4.49,'11111222,11111222,11111222' 
TABS,ioos:station:wmo:42045:1,2015-07-01T23:00:00Z,26.2168,-96.4998,4.0,4.125396951,240.2035085,5.04,'11111222,11111222,11111222' 
TABS,ioos:station:wmo:42045:1,2015-07-01T23:30:00Z,26.2168,-96.4998,4.0,4.455333882,225.9094836,5.37,'11111222,11111222,11111222' 
TABS,ioos:station:wmo:42045:1,2015-07-02T00:00:00Z,26.2168,-96.4998,4.0,4.280292046,219.9770779,5.19,'11111222,11111222,11111222' 
TABS,ioos:station:wmo:42045:1,2015-07-02T00:30:00Z,26.2168,-96.4998,4.0,3.610235449,227.6943832,4.59,'11111222,11111222,11111222' 
TABS,ioos:station:wmo:42045:1,2015-07-02T01:00:00Z,26.2168,-96.4998,4.0,2.718105958,232.6242799,3.52,'11111222,11111222,11111222' 
TABS,ioos:station:wmo:42045:1,2015-07-02T01:30:00Z,26.2168,-96.4998,4.0,2.29,254.8107488,3.14,'11111222,11111222,11111222' 
TABS,ioos:station:wmo:42045:1,2015-07-02T02:00:00Z,26.2168,-96.4998,4.0,1.910497317,259.7488252,2.58,'11111222,11111222,11111222' 
TABS,ioos:station:wmo:42045:1,2015-07-02T02:30:00Z,26.2168,-96.4998,4.0,1.131105654,267.466447,1.93,'11111222,11111222,11111222' 
TABS,ioos:station:wmo:42045:1,2015-07-02T03:00:00Z,26.2168,-96.4998,4.0,0.072111026,303.6899887,0.53,'11111222,11111222,11111222' 
TABS,ioos:station:wmo:42045:1,2015-07-02T03:30:00Z,26.2168,-96.4998,4.0,0.955667306,76.69043151,1.63,'11111222,11111222,11111222' 
TABS,ioos:station:wmo:42045:1,2015-07-02T04:00:00Z,26.2168,-96.4998,4.0,1.962065238,87.37050334,2.67,'11111222,11111222,11111222' 
TABS,ioos:station:wmo:42045:1,2015-07-02T04:30:00Z,26.2168,-96.4998,4.0,2.329635165,74.05422047,3.03,'11111222,11111222,11111222' 
TABS,ioos:station:wmo:42045:1,2015-07-02T05:00:00Z,26.2168,-96.4998,4.0,3.209517098,77.21908097,3.87,'11111222,11111222,11111222' 
TABS,ioos:station:wmo:42045:1,2015-07-02T05:30:00Z,26.2168,-96.4998,4.0,3.604719129,79.12608411,4.25,'11111222,11111222,11111222' 
TABS,ioos:station:wmo:42045:1,2015-07-02T06:00:00Z,26.2168,-96.4998,4.0,3.431442845,85.31914641,4.25,'11111222,11111222,11111222' 
TABS,ioos:station:wmo:42045:1,2015-07-02T06:30:00Z,26.2168,-96.4998,4.0,3.163700365,73.28302735,4.09,'11111222,11111222,11111222' 
TABS,ioos:station:wmo:42045:1,2015-07-02T07:00:00Z,26.2168,-96.4998,4.0,3.536000566,101.0878824,4.28,'11111222,11111222,11111222' 
TABS,ioos:station:wmo:42045:1,2015-07-02T07:30:00Z,26.2168,-96.4998,4.0,3.79005277,127.1725812,4.81,'11111222,11111222,11111222' 
TABS,ioos:station:wmo:42045:1,2015-07-02T08:00:00Z,26.2168,-96.4998,4.0,4.763402146,140.9647888,5.86,'11111222,11111222,11111222' 
TABS,ioos:station:wmo:42045:1,2015-07-02T08:30:00Z,26.2168,-96.4998,4.0,5.311318104,148.9440246,6.1,'11111222,11111222,11111222' 
TABS,ioos:station:wmo:42045:1,2015-07-02T09:00:00Z,26.2168,-96.4998,4.0,6.50249183,153.5140324,7.55,'11111222,11111222,11111222' 
TABS,ioos:station:wmo:42045:1,2015-07-02T09:30:00Z,26.2168,-96.4998,4.0,6.158327695,153.8929111,6.92,'11111222,11111222,11111222' 
TABS,ioos:station:wmo:42045:1,2015-07-02T10:00:00Z,26.2168,-96.4998,4.0,6.185563838,155.7556279,7.3,'11111222,11111222,11111222' 
TABS,ioos:station:wmo:42045:1,2015-07-02T10:30:00Z,26.2168,-96.4998,4.0,5.961560198,152.9624249,6.91,'11111222,11111222,11111222' 
TABS,ioos:station:wmo:42045:1,2015-07-02T11:00:00Z,26.2168,-96.4998,4.0,5.87441912,150.6425256,6.82,'11111222,11111222,11111222' 
TABS,ioos:station:wmo:42045:1,2015-07-02T11:30:00Z,26.2168,-96.4998,4.0,6.376684091,150.5005838,7.74,'11111222,11111222,11111222' 
TABS,ioos:station:wmo:42045:1,2015-07-02T12:00:00Z,26.2168,-96.4998,4.0,6.109410774,152.7222084,7.18,'11111222,11111222,11111222' 
TABS,ioos:station:wmo:42045:1,2015-07-02T12:30:00Z,26.2168,-96.4998,4.0,6.388340943,148.8980942,7.42,'11111222,11111222,11111222' 
TABS,ioos:station:wmo:42045:1,2015-07-02T13:00:00Z,26.2168,-96.4998,4.0,7.069087636,142.1253154,8.28,'11111222,11111222,11111222' 
TABS,ioos:station:wmo:42045:1,2015-07-02T13:30:00Z,26.2168,-96.4998,4.0,6.932712312,138.0990979,8.97,'11111222,11111222,11111222' 
TABS,ioos:station:wmo:42045:1,2015-07-02T14:00:00Z,26.2168,-96.4998,4.0,7.588708718,136.1215226,8.75,'11111222,11111222,11111222' 
TABS,ioos:station:wmo:42045:1,2015-07-02T14:30:00Z,26.2168,-96.4998,4.0,7.267310369,142.0423384,8.7,'11111222,11111222,11111222' 
TABS,ioos:station:wmo:42045:1,2015-07-02T15:00:00Z,26.2168,-96.4998,4.0,7.92467034,138.9912195,9.46,'11111222,11111222,11111222' 
TABS,ioos:station:wmo:42045:1,2015-07-02T15:30:00Z,26.2168,-96.4998,4.0,7.673851706,137.7467099,9.18,'11111222,11111222,11111222' 
TABS,ioos:station:wmo:42045:1,2015-07-02T16:00:00Z,26.2168,-96.4998,4.0,7.856035896,135.2581701,9.06,'11111222,11111222,11111222' 
TABS,ioos:station:wmo:42045:1,2015-07-02T16:30:00Z,26.2168,-96.4998,4.0,8.20761232,139.5958762,9.78,'11111222,11111222,11111222' 
TABS,ioos:station:wmo:42045:1,2015-07-02T17:00:00Z,26.2168,-96.4998,4.0,7.61367848,140.917394,8.81,'11111222,11111222,11111222' 
TABS,ioos:station:wmo:42045:1,2015-07-02T17:30:00Z,26.2168,-96.4998,4.0,7.678600133,143.8467438,9.06,'11111222,11111222,11111222' 
TABS,ioos:station:wmo:42045:1,2015-07-02T18:00:00Z,26.2168,-96.4998,4.0,7.910025284,146.2901321,9.1,'11111222,11111222,11111222' 
TABS,ioos:station:wmo:42045:1,2015-07-02T18:30:00Z,26.2168,-96.4998,4.0,7.372448711,144.6071646,8.54,'11111222,11111222,11111222' 
TABS,ioos:station:wmo:42045:1,2015-07-02T19:00:00Z,26.2168,-96.4998,4.0,6.787709481,147.2701325,7.9,'11111222,11111222,11111222' 
TABS,ioos:station:wmo:42045:1,2015-07-02T19:30:00Z,26.2168,-96.4998,4.0,6.989971388,144.4912017,8.16,'11111222,11111222,11111222' 
TABS,ioos:station:wmo:42045:1,2015-07-02T20:00:00Z,26.2168,-96.4998,4.0,6.519179396,142.0405244,7.99,'11111222,11111222,11111222' 
TABS,ioos:station:wmo:42045:1,2015-07-02T20:30:00Z,26.2168,-96.4998,4.0,6.751666461,141.857372,7.82,'11111222,11111222,11111222' 
TABS,ioos:station:wmo:42045:1,2015-07-02T21:00:00Z,26.2168,-96.4998,4.0,6.655862078,136.4004618,7.64,'11111222,11111222,11111222' 
TABS,ioos:station:wmo:42045:1,2015-07-02T21:30:00Z,26.2168,-96.4998,4.0,7.166344954,133.2474915,8.88,'11111222,11111222,11111222' 
TABS,ioos:station:wmo:42045:1,2015-07-02T22:00:00Z,26.2168,-96.4998,4.0,7.028997084,134.4239202,8.17,'11111222,11111222,11111222' 
TABS,ioos:station:wmo:42045:1,2015-07-02T22:30:00Z,26.2168,-96.4998,4.0,6.014399388,139.450675,6.9,'11111222,11111222,11111222' 
TABS,ioos:station:wmo:42045:1,2015-07-02T23:00:00Z,26.2168,-96.4998,4.0,5.942995878,136.9094637,6.93,'11111222,11111222,11111222' 
TABS,ioos:station:wmo:42045:1,2015-07-02T23:30:00Z,26.2168,-96.4998,4.0,6.204675656,140.1001462,7.58,'11111222,11111222,11111222' 
TABS,ioos:station:wmo:42045:1,2015-07-03T00:00:00Z,26.2168,-96.4998,4.0,5.650380518,141.4671826,7.01,'11111222,11111222,11111222' 
TABS,ioos:station:wmo:42045:1,2015-07-03T00:30:00Z,26.2168,-96.4998,4.0,5.893767895,133.0064346,7.05,'11111222,11111222,11111222' 
TABS,ioos:station:wmo:42045:1,2015-07-03T01:00:00Z,26.2168,-96.4998,4.0,6.078889701,127.8505163,6.98,'11111222,11111222,11111222' 
TABS,ioos:station:wmo:42045:1,2015-07-03T01:30:00Z,26.2168,-96.4998,4.0,6.132177427,131.9597555,7.53,'11111222,11111222,11111222' 
TABS,ioos:station:wmo:42045:1,2015-07-03T02:00:00Z,26.2168,-96.4998,4.0,6.347172599,131.5514016,7.67,'11111222,11111222,11111222' 
TABS,ioos:station:wmo:42045:1,2015-07-03T02:30:00Z,26.2168,-96.4998,4.0,6.193972877,132.3175677,7.76,'11111222,11111222,11111222' 
TABS,ioos:station:wmo:42045:1,2015-07-03T03:00:00Z,26.2168,-96.4998,4.0,6.484566292,137.7503944,7.67,'11111222,11111222,11111222' 
TABS,ioos:station:wmo:42045:1,2015-07-03T03:30:00Z,26.2168,-96.4998,4.0,6.225118473,144.2165295,7.44,'11111222,11111222,11111222' 
TABS,ioos:station:wmo:42045:1,2015-07-03T04:00:00Z,26.2168,-96.4998,4.0,6.954538087,151.297766,8.29,'11111222,11111222,11111222' 
TABS,ioos:station:wmo:42045:1,2015-07-03T04:30:00Z,26.2168,-96.4998,4.0,7.19189822,155.6090591,8.5,'11111222,11111222,11111222' 
TABS,ioos:station:wmo:42045:1,2015-07-03T05:00:00Z,26.2168,-96.4998,4.0,7.358702331,161.2944636,9.24,'11111222,11111222,11111222' 
TABS,ioos:station:wmo:42045:1,2015-07-03T05:30:00Z,26.2168,-96.4998,4.0,6.681466905,167.3784197,8.21,'11111222,11111222,11111222' 
TABS,ioos:station:wmo:42045:1,2015-07-03T06:00:00Z,26.2168,-96.4998,4.0,7.286055174,171.7144328,8.65,'11111222,11111222,11111222' 
TABS,ioos:station:wmo:42045:1,2015-07-03T06:30:00Z,26.2168,-96.4998,4.0,7.344685153,165.1693291,8.87,'11111222,11111222,11111222' 
TABS,ioos:station:wmo:42045:1,2015-07-03T07:00:00Z,26.2168,-96.4998,4.0,6.730505182,166.335642,8.02,'11111222,11111222,11111222' 
TABS,ioos:station:wmo:42045:1,2015-07-03T07:30:00Z,26.2168,-96.4998,4.0,5.954242185,168.2751259,7.1,'11111222,11111222,11111222' 
TABS,ioos:station:wmo:42045:1,2015-07-03T08:00:00Z,26.2168,-96.4998,4.0,5.513048159,166.468128,6.59,'11111222,11111222,11111222' 
TABS,ioos:station:wmo:42045:1,2015-07-03T08:30:00Z,26.2168,-96.4998,4.0,5.787037239,164.2588469,6.79,'11111222,11111222,11111222' 
TABS,ioos:station:wmo:42045:1,2015-07-03T09:00:00Z,26.2168,-96.4998,4.0,5.606157329,163.3107944,6.66,'11111222,11111222,11111222' 
TABS,ioos:station:wmo:42045:1,2015-07-03T09:30:00Z,26.2168,-96.4998,4.0,5.325279335,161.4972577,6.54,'11111222,11111222,11111222' 
TABS,ioos:station:wmo:42045:1,2015-07-03T10:00:00Z,26.2168,-96.4998,4.0,4.512405124,153.2648682,5.49,'11111222,11111222,11111222' 
TABS,ioos:station:wmo:42045:1,2015-07-03T10:30:00Z,26.2168,-96.4998,4.0,4.620660126,146.2070484,5.58,'11111222,11111222,11111222' 
TABS,ioos:station:wmo:42045:1,2015-07-03T11:00:00Z,26.2168,-96.4998,4.0,4.876033224,149.7015532,5.84,'11111222,11111222,11111222' 
TABS,ioos:station:wmo:42045:1,2015-07-03T11:30:00Z,26.2168,-96.4998,4.0,4.707440918,155.3951441,5.43,'11111222,11111222,11111222' 
TABS,ioos:station:wmo:42045:1,2015-07-03T12:00:00Z,26.2168,-96.4998,4.0,4.478894953,156.5833101,5.42,'11111222,11111222,11111222' 
TABS,ioos:station:wmo:42045:1,2015-07-03T12:30:00Z,26.2168,-96.4998,4.0,4.48643511,150.6355688,5.68,'11111222,11111222,11111222' 
TABS,ioos:station:wmo:42045:1,2015-07-03T13:00:00Z,26.2168,-96.4998,4.0,4.27731224,148.5770683,5.02,'11111222,11111222,11111222' 
TABS,ioos:station:wmo:42045:1,2015-07-03T13:30:00Z,26.2168,-96.4998,4.0,4.336265675,142.4961558,5.05,'11111222,11111222,11111222' 
TABS,ioos:station:wmo:42045:1,2015-07-03T14:00:00Z,26.2168,-96.4998,4.0,4.988196067,141.4301852,5.88,'11111222,11111222,11111222' 
TABS,ioos:station:wmo:42045:1,2015-07-03T14:30:00Z,26.2168,-96.4998,4.0,5.132065861,142.8401274,5.77,'11111222,11111222,11111222' 
TABS,ioos:station:wmo:42045:1,2015-07-03T15:00:00Z,26.2168,-96.4998,4.0,5.800482739,140.8776946,6.62,'11111222,11111222,11111222' 
TABS,ioos:station:wmo:42045:1,2015-07-03T15:30:00Z,26.2168,-96.4998,4.0,6.23243933,143.8107069,7.26,'11111222,11111222,11111222' 
TABS,ioos:station:wmo:42045:1,2015-07-03T16:00:00Z,26.2168,-96.4998,4.0,6.413111569,145.4181471,246.2,'11111222,11111222,11144222' 
TABS,ioos:station:wmo:42045:1,2015-07-03T16:30:00Z,26.2168,-96.4998,4.0,6.076981158,148.11483,7.11,'11111222,11111222,11111222' 
TABS,ioos:station:wmo:42045:1,2015-07-03T17:00:00Z,26.2168,-96.4998,4.0,6.245198155,150.0278105,7.25,'11111222,11111222,11111222' 
TABS,ioos:station:wmo:42045:1,2015-07-03T17:30:00Z,26.2168,-96.4998,4.0,6.064396095,147.5943098,7.5,'11111222,11111222,11111222' 
TABS,ioos:station:wmo:42045:1,2015-07-03T18:00:00Z,26.2168,-96.4998,4.0,6.632299752,153.7829318,8.27,'11111222,11111222,11111222' 
TABS,ioos:station:wmo:42045:1,2015-07-03T18:30:00Z,26.2168,-96.4998,4.0,5.43103121,147.1002546,6.12,'11111222,11111222,11111222' 
TABS,ioos:station:wmo:42045:1,2015-07-03T19:00:00Z,26.2168,-96.4998,4.0,5.582006808,147.7337768,6.84,'11111222,11111222,11111222' 
TABS,ioos:station:wmo:42045:1,2015-07-03T19:30:00Z,26.2168,-96.4998,4.0,5.756752557,144.9022749,6.47,'11111222,11111222,11111222' 
TABS,ioos:station:wmo:42045:1,2015-07-03T20:00:00Z,26.2168,-96.4998,4.0,5.155443725,141.7744107,5.99,'11111222,11111222,11111222' 
TABS,ioos:station:wmo:42045:1,2015-07-03T20:30:00Z,26.2168,-96.4998,4.0,6.555188784,135.5565666,7.43,'11111222,11111222,11111222' 
TABS,ioos:station:wmo:42045:1,2015-07-03T21:00:00Z,26.2168,-96.4998,4.0,7.384050379,144.480656,8.28,'11111222,11111222,11111222' 
TABS,ioos:station:wmo:42045:1,2015-07-03T21:30:00Z,26.2168,-96.4998,4.0,7.481931569,153.2297388,8.91,'11111222,11111222,11111222' 
TABS,ioos:station:wmo:42045:1,2015-07-03T22:00:00Z,26.2168,-96.4998,4.0,6.768589218,154.9117815,7.97,'11111222,11111222,11111222' 
TABS,ioos:station:wmo:42045:1,2015-07-03T22:30:00Z,26.2168,-96.4998,4.0,6.689581452,155.3507497,7.72,'11111222,11111222,11111222' 
TABS,ioos:station:wmo:42045:1,2015-07-03T23:00:00Z,26.2168,-96.4998,4.0,6.501730539,159.7536377,7.84,'11111222,11111222,11111222' 
TABS,ioos:station:wmo:42045:1,2015-07-03T23:30:00Z,26.2168,-96.4998,4.0,7.106820667,160.5199728,8.73,'11111222,11111222,11111222' 
TABS,ioos:station:wmo:42045:1,2015-07-04T00:00:00Z,26.2168,-96.4998,4.0,6.269138697,155.3974738,7.52,'11111222,11111222,11111222' 
TABS,ioos:station:wmo:42045:1,2015-07-04T00:30:00Z,26.2168,-96.4998,4.0,6.921170421,158.7368956,7.96,'11111222,11111222,11111222' 
TABS,ioos:station:wmo:42045:1,2015-07-04T01:00:00Z,26.2168,-96.4998,4.0,6.89180673,153.9185606,8.12,'11111222,11111222,11111222' 
TABS,ioos:station:wmo:42045:1,2015-07-04T01:30:00Z,26.2168,-96.4998,4.0,7.263091628,149.3747494,8.31,'11111222,11111222,11111222' 
TABS,ioos:station:wmo:42045:1,2015-07-04T02:00:00Z,26.2168,-96.4998,4.0,7.482653273,154.257099,9.12,'11111222,11111222,11111222' 
TABS,ioos:station:wmo:42045:1,2015-07-04T02:30:00Z,26.2168,-96.4998,4.0,8.042468527,158.2517687,9.6,'11111222,11111222,11111222' 
TABS,ioos:station:wmo:42045:1,2015-07-04T03:00:00Z,26.2168,-96.4998,4.0,8.110961719,159.3532679,9.4,'11111222,11111222,11111222' 
TABS,ioos:station:wmo:42045:1,2015-07-04T03:30:00Z,26.2168,-96.4998,4.0,7.194532646,155.1806307,9.03,'11111222,11111222,11111222' 
TABS,ioos:station:wmo:42045:1,2015-07-04T04:00:00Z,26.2168,-96.4998,4.0,7.312079048,153.0847937,8.7,'11111222,11111222,11111222' 
TABS,ioos:station:wmo:42045:1,2015-07-04T04:30:00Z,26.2168,-96.4998,4.0,7.567013942,153.8077056,8.85,'11111222,11111222,11111222' 
TABS,ioos:station:wmo:42045:1,2015-07-04T05:00:00Z,26.2168,-96.4998,4.0,7.543851801,157.3102906,9.47,'11111222,11111222,11111222' 
TABS,ioos:station:wmo:42045:1,2015-07-04T05:30:00Z,26.2168,-96.4998,4.0,7.571802956,154.0782052,9.37,'11111222,11111222,11111222' 
TABS,ioos:station:wmo:42045:1,2015-07-04T06:00:00Z,26.2168,-96.4998,4.0,7.486841791,150.5591501,9.33,'11111222,11111222,11111222' 
TABS,ioos:station:wmo:42045:1,2015-07-04T06:30:00Z,26.2168,-96.4998,4.0,7.484236768,149.2203339,8.67,'11111222,11111222,11111222' 
TABS,ioos:station:wmo:42045:1,2015-07-04T07:00:00Z,26.2168,-96.4998,4.0,7.663530518,151.897004,8.87,'11111222,11111222,11111222' 
TABS,ioos:station:wmo:42045:1,2015-07-04T07:30:00Z,26.2168,-96.4998,4.0,8.154415982,155.6667986,9.52,'11111222,11111222,11111222' 
TABS,ioos:station:wmo:42045:1,2015-07-04T08:00:00Z,26.2168,-96.4998,4.0,8.545179928,155.894811,10.43,'11111222,11111222,11111222' 
TABS,ioos:station:wmo:42045:1,2015-07-04T08:30:00Z,26.2168,-96.4998,4.0,7.763794176,155.4158377,9.59,'11111222,11111222,11111222' 
TABS,ioos:station:wmo:42045:1,2015-07-04T09:00:00Z,26.2168,-96.4998,4.0,7.166261229,157.6940576,9.03,'11111222,11111222,11111222' 
TABS,ioos:station:wmo:42045:1,2015-07-04T09:30:00Z,26.2168,-96.4998,4.0,7.346107813,158.1843687,9.22,'11111222,11111222,11111222' 
TABS,ioos:station:wmo:42045:1,2015-07-04T10:00:00Z,26.2168,-96.4998,4.0,6.649819546,155.4778745,8.62,'11111222,11111222,11111222' 
TABS,ioos:station:wmo:42045:1,2015-07-04T10:30:00Z,26.2168,-96.4998,4.0,7.025225975,156.2447995,8.78,'11111222,11111222,11111222' 
TABS,ioos:station:wmo:42045:1,2015-07-04T11:00:00Z,26.2168,-96.4998,4.0,6.409251126,157.2359906,7.8,'11111222,11111222,11111222' 
TABS,ioos:station:wmo:42045:1,2015-07-04T11:30:00Z,26.2168,-96.4998,4.0,6.294354613,154.9008883,7.81,'11111222,11111222,11111222' 
TABS,ioos:station:wmo:42045:1,2015-07-04T12:00:00Z,26.2168,-96.4998,4.0,6.499053777,152.4100818,8.12,'11111222,11111222,11111222' 
TABS,ioos:station:wmo:42045:1,2015-07-04T12:30:00Z,26.2168,-96.4998,4.0,6.513102179,154.7335955,8.16,'11111222,11111222,11111222' 
TABS,ioos:station:wmo:42045:1,2015-07-04T13:00:00Z,26.2168,-96.4998,4.0,6.440031056,153.0373414,8.18,'11111222,11111222,11111222' 
TABS,ioos:station:wmo:42045:1,2015-07-04T13:30:00Z,26.2168,-96.4998,4.0,6.682469603,151.0955754,8.07,'11111222,11111222,11111222' 
TABS,ioos:station:wmo:42045:1,2015-07-04T14:00:00Z,26.2168,-96.4998,4.0,6.718630813,147.3982824,8.21,'11111222,11111222,11111222' 
TABS,ioos:station:wmo:42045:1,2015-07-04T14:30:00Z,26.2168,-96.4998,4.0,7.133316199,150.5243904,8.7,'11111222,11111222,11111222' 
TABS,ioos:station:wmo:42045:1,2015-07-04T15:00:00Z,26.2168,-96.4998,4.0,6.705617048,147.7322461,8.4,'11111222,11111222,11111222' 
TABS,ioos:station:wmo:42045:1,2015-07-04T15:30:00Z,26.2168,-96.4998,4.0,6.869854438,147.9064966,8.68,'11111222,11111222,11111222' 
TABS,ioos:station:wmo:42045:1,2015-07-04T16:00:00Z,26.2168,-96.4998,4.0,7.241063458,148.4394356,8.37,'11111222,11111222,11111222' 
TABS,ioos:station:wmo:42045:1,2015-07-04T16:30:00Z,26.2168,-96.4998,4.0,6.650729283,149.1547224,7.84,'11111222,11111222,11111222' 
TABS,ioos:station:wmo:42045:1,2015-07-04T17:00:00Z,26.2168,-96.4998,4.0,6.55988567,149.291172,8.02,'11111222,11111222,11111222' 
TABS,ioos:station:wmo:42045:1,2015-07-04T17:30:00Z,26.2168,-96.4998,4.0,6.548236404,146.3344892,7.59,'11111222,11111222,11111222' 
TABS,ioos:station:wmo:42045:1,2015-07-04T18:00:00Z,26.2168,-96.4998,4.0,7.313173046,152.3840431,9.2,'11111222,11111222,11111222' 
TABS,ioos:station:wmo:42045:1,2015-07-04T18:30:00Z,26.2168,-96.4998,4.0,7.320771817,157.4285612,8.76,'11111222,11111222,11111222' 